METEOR 2-6 DEB, 38837

Orbit data source: Space-Track

METEOR 2-6 DEB, 38837 is space debris in LEO originally from a launch on Tue, 09 Sep 1980 UTC launched from the Plesetsk Missile And Space Complex (PKMTR). Debris objects in space refer to the collection of defunct objects orbiting the Earth. Examples of debris include non-operational satellites, rocket bodies, and fragments generated from explosions, collisions, or faulty payload assembly.

Loading next visibility...
METEOR 2-6 DEB details
Identifier
38837, 1980-073P
Orbit
LEO
Last TLE update2 days ago
Origin
Flag of CISKVR (CIS)
ManufacturerUnknown
MissionSpacecraft
Bus & MotorUnknown
MassUnknown
Launch date (UTC)
1980-09-09 (44 years ago)
Launch vehicleUnknown
Launch site
Plesetsk Missile And Space Complex (PKMTR)
Object type
Payload
Rocket body
Debris
Shape & HBRUnknown
Radar Cross SectionSmall (<0.1 m²)

Expand to show TLE details & history

TLE from 2 days ago
0 METEOR 2-6 DEB
1 38837U 80073P   24359.53793440  .00051589  00000-0  76373-2 0  9991
2 38837  81.1741  92.1917 0012278 189.6248 187.0794 14.74834065673891
Epoch: 2024-12-24T12:54Z
Definitive object data (Epoch: 2024-12-24T12:54:37.532Z)
Latitude16.46727°
Longitude167.60711°
Altitude656.572 km
Speed7.526 km/s
True Right ascension06h 19m 13s
True Declination16° 22' 22"
Sunlit
Object was in full shadow at TLE epoch
Visualization TLE readout
Latitude52.31141°
Longitude-28.70566°
Altitude648.759 km
Speed7.541 km/s
Apparent Right ascension20h 54m 32s
Apparent Declination14° 03' 48"
Sunlit
Object is in daylight
Visualization observer readout
Local Sidereal Time11:59:05
Azimuth48.549° ENE
Elevation-21.078°
Doppler factor1
Orbital elements
Apogee altitude651.39 km
Perigee altitude634.149 km
Semi-major axis7,020.907 km
Eccentricity0.0012278
Inclination81.1741°
RAAN92.1917°
Arg. of periapsis189.6248°
True anomaly187.06209°
Mean anomaly187.0794°
Eccentric anomaly187.07074°
Mean motion3.68938 °/min
BSTAR0.0076373
Orbital period97.58 mins
Loading maneuver chart data...
Loading historical data...
Loading historical data...
Loading historical data...
Loading historical data...
Loading historical data...
Loading historical data...
Loading historical data...

METEOR 2-6 DEB Visibility forecast

Observer location: undefined°, undefined

Span
Click to sort rows by Start time (UTC) header in descending order
Start Az.
Max El. time (UTC)
Max El. Az.
Max El.
End time (UTC)
End Az.
8 mins2024-12-26 17:29:32.502Z7.213° NNE2024-12-26 17:33:32.502Z71.926° E31.708°2024-12-26 17:37:32.502Z143.275° SSE
4 mins2024-12-26 19:10:32.502Z293.538° NW2024-12-26 19:11:32.502Z277.631° WNW16.525°2024-12-26 19:14:32.502Z233.546° WSW
5 mins2024-12-27 06:06:32.502Z122.947° SE2024-12-27 06:08:32.502Z86.192° E21.545°2024-12-27 06:11:32.502Z41.183° NE
6 mins2024-12-27 07:44:32.502Z241.604° WSW2024-12-27 07:46:32.502Z280.884° WNW26.169°2024-12-27 07:50:32.502Z346.037° N
|